�������l�o���
Date,Time,MP-1(��Sv/h),MP-2(��Sv/h),MP-3(��Sv/h),MP-4(��Sv/h),MP-5(��Sv/h),MP-6(��Sv/h),MP-7(��Sv/h),MP-8(��Sv/h),����,����(m/s),���J
2020/07/06,00:00,0.661,0.938,0.607,1.134,0.810,0.389,0.667,0.630,�k,2.2,��
2020/07/06,00:10,0.659,0.936,0.606,1.137,0.810,0.389,0.667,0.628,�k�k��,2.6,��
2020/07/06,00:20,0.658,0.937,0.606,1.134,0.811,0.391,0.667,0.630,�k�k��,2.3,��
2020/07/06,00:30,0.660,0.937,0.605,1.136,0.812,0.390,0.666,0.630,�k�k��,2.5,��
2020/07/06,00:40,0.660,0.937,0.606,1.136,0.811,0.391,0.667,0.630,�k�k��,2.0,��
2020/07/06,00:50,0.659,0.937,0.606,1.134,0.812,0.391,0.666,0.630,�k�k��,1.9,��
2020/07/06,01:00,0.658,0.937,0.606,1.135,0.812,0.391,0.666,0.630,�k�k��,1.5,��
2020/07/06,01:10,0.660,0.934,0.606,1.136,0.810,0.392,0.667,0.629,�k�k��,1.5,��
2020/07/06,01:20,0.659,0.938,0.606,1.136,0.812,0.391,0.668,0.630,�k�k��,0.8,��
2020/07/06,01:30,0.660,0.935,0.607,1.136,0.812,0.391,0.667,0.631,-,CALM,��
2020/07/06,01:40,0.660,0.936,0.606,1.137,0.813,0.390,0.668,0.630,�k�k��,0.9,��
2020/07/06,01:50,0.660,0.937,0.607,1.135,0.812,0.389,0.668,0.631,-,CALM,��
2020/07/06,02:00,0.658,0.936,0.607,1.135,0.813,0.390,0.668,0.630,-,CALM,��
2020/07/06,02:10,0.659,0.937,0.607,1.136,0.812,0.391,0.669,0.630,-,CALM,��
2020/07/06,02:20,0.659,0.936,0.605,1.137,0.812,0.391,0.668,0.629,��,0.9,��
2020/07/06,02:30,0.659,0.937,0.607,1.135,0.809,0.390,0.669,0.630,��쐼,1.4,��
2020/07/06,02:40,0.660,0.935,0.605,1.136,0.811,0.390,0.666,0.631,��쐼,1.4,��
2020/07/06,02:50,0.661,0.936,0.607,1.136,0.812,0.390,0.667,0.631,��,1.5,��
2020/07/06,03:00,0.661,0.938,0.606,1.137,0.813,0.390,0.667,0.630,��쓌,2.0,��
2020/07/06,03:10,0.657,0.936,0.607,1.138,0.813,0.390,0.669,0.630,��,1.9,��
2020/07/06,03:20,0.660,0.935,0.605,1.137,0.812,0.391,0.668,0.629,��,1.5,��
2020/07/06,03:30,0.659,0.935,0.606,1.137,0.811,0.390,0.667,0.629,��쓌,1.9,��
2020/07/06,03:40,0.662,0.935,0.607,1.135,0.811,0.391,0.669,0.630,��,1.5,��
2020/07/06,03:50,0.660,0.934,0.607,1.136,0.813,0.390,0.669,0.630,��,2.6,�L
2020/07/06,04:00,0.660,0.936,0.608,1.136,0.809,0.389,0.667,0.631,��쓌,1.9,��
2020/07/06,04:10,0.661,0.937,0.606,1.137,0.813,0.389,0.668,0.631,�쓌,1.7,��
2020/07/06,04:20,0.659,0.936,0.605,1.136,0.811,0.391,0.667,0.630,��,2.3,��
2020/07/06,04:30,0.661,0.936,0.606,1.136,0.810,0.390,0.668,0.631,��,2.6,��
2020/07/06,04:40,0.660,0.936,0.606,1.135,0.812,0.389,0.667,0.629,��쓌,2.3,��
2020/07/06,04:50,0.659,0.933,0.605,1.135,0.813,0.389,0.666,0.630,��쓌,2.5,��
2020/07/06,05:00,0.659,0.936,0.608,1.135,0.810,0.389,0.668,0.630,��,2.9,��
2020/07/06,05:10,0.657,0.935,0.605,1.135,0.812,0.390,0.668,0.629,��,2.6,��
2020/07/06,05:20,0.660,0.937,0.608,1.136,0.812,0.391,0.667,0.630,��,2.6,��
2020/07/06,05:30,0.659,0.935,0.604,1.135,0.812,0.390,0.665,0.630,��,3.2,��
2020/07/06,05:40,0.660,0.935,0.607,1.137,0.814,0.391,0.669,0.629,��,2.9,��
2020/07/06,05:50,0.657,0.936,0.605,1.136,0.811,0.390,0.667,0.629,��쓌,2.6,��
2020/07/06,06:00,0.659,0.936,0.606,1.135,0.811,0.390,0.666,0.631,��,2.6,��
2020/07/06,06:10,0.660,0.934,0.606,1.135,0.813,0.390,0.668,0.629,��,2.5,�L
2020/07/06,06:20,0.660,0.936,0.607,1.135,0.809,0.389,0.668,0.629,��쐼,1.1,�L
2020/07/06,06:30,0.660,0.936,0.606,1.137,0.813,0.390,0.668,0.630,��,1.2,�L
2020/07/06,06:40,0.660,0.936,0.607,1.136,0.814,0.389,0.668,0.628,��쐼,1.4,��
2020/07/06,06:50,0.661,0.938,0.605,1.136,0.811,0.390,0.668,0.628,��,1.4,��
2020/07/06,07:00,0.662,0.938,0.604,1.138,0.814,0.389,0.667,0.629,��,1.7,��
2020/07/06,07:10,0.659,0.935,0.604,1.133,0.813,0.389,0.667,0.629,��쐼,0.9,��
2020/07/06,07:20,0.660,0.935,0.602,1.135,0.813,0.389,0.669,0.628,��쓌,1.4,�L
2020/07/06,07:30,0.659,0.934,0.605,1.135,0.813,0.389,0.667,0.628,��쐼,1.5,�L
2020/07/06,07:40,0.661,0.937,0.606,1.138,0.814,0.390,0.668,0.628,�쐼,1.5,�L
2020/07/06,07:50,0.661,0.935,0.606,1.137,0.812,0.391,0.667,0.627,���k��,1.2,�L
2020/07/06,08:00,0.661,0.935,0.606,1.136,0.812,0.391,0.667,0.628,-,CALM,�L
2020/07/06,08:10,0.659,0.935,0.604,1.137,0.814,0.390,0.669,0.628,��,0.6,�L
2020/07/06,08:20,0.658,0.931,0.607,1.137,0.813,0.389,0.667,0.628,-,CALM,�L
2020/07/06,08:30,0.659,0.931,0.605,1.136,0.814,0.390,0.668,0.629,��쓌,0.9,�L
2020/07/06,08:40,0.660,0.933,0.604,1.136,0.813,0.390,0.667,0.628,��쓌,2.3,�L
2020/07/06,08:50,0.659,0.931,0.606,1.136,0.812,0.389,0.666,0.627,��,3.5,�L
2020/07/06,09:00,0.660,0.931,0.604,1.136,0.812,0.390,0.666,0.627,��쐼,2.6,�L
2020/07/06,09:10,0.660,0.926,0.604,1.136,0.811,0.391,0.666,0.629,���쐼,1.7,�L
2020/07/06,09:20,0.660,0.927,0.604,1.134,0.811,0.391,0.666,0.629,��,0.9,�L
2020/07/06,09:30,0.660,0.926,0.603,1.136,0.810,0.391,0.666,0.628,��,1.5,�L
2020/07/06,09:40,0.660,0.923,0.604,1.137,0.810,0.392,0.666,0.626,�쓌,2.0,�L
2020/07/06,09:50,0.659,0.925,0.602,1.136,0.810,0.391,0.667,0.627,�쓌,1.5,�L
2020/07/06,10:00,0.659,0.925,0.605,1.135,0.810,0.391,0.666,0.626,-,CALM,�L
2020/07/06,10:10,0.659,0.923,0.603,1.135,0.809,0.390,0.667,0.627,�k�k��,1.7,�L
2020/07/06,10:20,0.656,0.923,0.600,1.135,0.807,0.391,0.667,0.627,�k�k��,1.7,�L
2020/07/06,10:30,0.656,0.925,0.600,1.134,0.807,0.390,0.665,0.625,�k�k��,1.2,�L
2020/07/06,10:40,0.656,0.924,0.601,1.131,0.807,0.391,0.666,0.625,��,0.6,��
2020/07/06,10:50,0.657,0.925,0.601,1.132,0.809,0.389,0.666,0.626,�k��,2.0,��
2020/07/06,11:00,0.658,0.924,0.600,1.134,0.808,0.390,0.666,0.626,�k��,3.8,��
2020/07/06,11:10,0.658,0.923,0.599,1.133,0.807,0.388,0.666,0.627,�k��,2.8,��
2020/07/06,11:20,0.655,0.925,0.597,1.133,0.806,0.388,0.665,0.625,�k�k��,2.0,�L
2020/07/06,11:30,0.656,0.921,0.599,1.132,0.805,0.389,0.664,0.625,�k��,2.2,�L
2020/07/06,11:40,0.656,0.927,0.598,1.132,0.806,0.391,0.665,0.626,�k��,1.7,�L
2020/07/06,11:50,0.655,0.920,0.596,1.129,0.803,0.389,0.666,0.625,�k,2.6,�L
2020/07/06,12:00,0.653,0.917,0.597,1.128,0.802,0.390,0.663,0.623,�k,3.6,�L
2020/07/06,12:10,0.654,0.918,0.595,1.125,0.800,0.389,0.662,0.623,�k,3.4,�L
2020/07/06,12:20,0.650,0.915,0.595,1.124,0.799,0.386,0.663,0.625,�k,2.3,�L
2020/07/06,12:30,0.650,0.914,0.593,1.121,0.796,0.388,0.662,0.622,�k,1.5,�L
2020/07/06,12:40,0.649,0.913,0.593,1.122,0.797,0.386,0.662,0.622,�k,0.9,�L
2020/07/06,12:50,0.648,0.911,0.593,1.119,0.797,0.386,0.662,0.621,�k,0.6,�L
2020/07/06,13:00,0.649,0.911,0.594,1.119,0.797,0.386,0.661,0.622,�k�k��,1.5,�L
2020/07/06,13:10,0.651,0.914,0.592,1.120,0.799,0.386,0.663,0.623,�k��,1.5,�L
2020/07/06,13:20,0.650,0.914,0.594,1.119,0.798,0.386,0.662,0.624,��,1.1,�L
2020/07/06,13:30,0.650,0.914,0.595,1.122,0.799,0.386,0.663,0.623,��쓌,1.5,�L
2020/07/06,13:40,0.650,0.915,0.593,1.122,0.799,0.386,0.662,0.625,��쓌,3.6,�L
2020/07/06,13:50,0.652,0.916,0.594,1.119,0.798,0.387,0.662,0.623,��,3.7,�L
2020/07/06,14:00,0.653,0.915,0.594,1.116,0.798,0.386,0.662,0.624,��,4.5,�L
2020/07/06,14:10,0.652,0.914,0.595,1.119,0.798,0.387,0.663,0.623,��,5.0,�L
2020/07/06,14:20,0.653,0.914,0.593,1.118,0.800,0.386,0.662,0.623,��,4.8,�L
2020/07/06,14:30,0.651,0.914,0.595,1.118,0.797,0.386,0.660,0.622,��,6.3,�L
2020/07/06,14:40,0.651,0.914,0.593,1.119,0.798,0.386,0.663,0.625,��,8.2,�L
2020/07/06,14:50,0.651,0.913,0.594,1.121,0.799,0.387,0.663,0.623,��,7.7,�L
2020/07/06,15:00,0.652,0.914,0.595,1.117,0.797,0.387,0.662,0.624,��,4.1,�L
2020/07/06,15:10,0.651,0.916,0.593,1.121,0.799,0.387,0.663,0.623,�쐼,2.3,�L
2020/07/06,15:20,0.650,0.917,0.594,1.120,0.797,0.387,0.662,0.623,��쐼,1.7,�L
2020/07/06,15:30,0.652,0.916,0.595,1.120,0.798,0.386,0.661,0.623,�쐼,1.5,�L
2020/07/06,15:40,0.648,0.912,0.593,1.118,0.796,0.388,0.662,0.621,��쐼,1.7,�L
2020/07/06,15:50,0.648,0.913,0.590,1.115,0.793,0.385,0.661,0.621,��,2.8,�L
2020/07/06,16:00,0.645,0.908,0.590,1.114,0.792,0.384,0.661,0.621,��쐼,2.2,�L
2020/07/06,16:10,0.646,0.905,0.589,1.108,0.789,0.385,0.659,0.621,��쐼,2.2,�L
2020/07/06,16:20,0.643,0.907,0.590,1.109,0.790,0.384,0.659,0.621,���쐼,1.2,�L
2020/07/06,16:30,0.644,0.903,0.588,1.108,0.789,0.385,0.657,0.621,��쐼,1.2,�L
2020/07/06,16:40,0.642,0.906,0.588,1.105,0.790,0.384,0.657,0.619,��쐼,0.6,�L
2020/07/06,16:50,0.642,0.905,0.588,1.108,0.789,0.384,0.658,0.620,-,CALM,�L
2020/07/06,17:00,0.643,0.908,0.590,1.106,0.790,0.384,0.655,0.621,�k�k��,0.8,�L
2020/07/06,17:10,0.645,0.908,0.588,1.109,0.791,0.384,0.659,0.621,�k�k��,1.5,�L
2020/07/06,17:20,0.645,0.910,0.589,1.109,0.789,0.384,0.658,0.620,�k�k��,1.9,�L
2020/07/06,17:30,0.644,0.910,0.590,1.110,0.792,0.385,0.658,0.620,�k,1.7,�L
2020/07/06,17:40,0.645,0.909,0.591,1.109,0.790,0.385,0.658,0.621,�k,0.9,�L
2020/07/06,17:50,0.644,0.909,0.590,1.109,0.789,0.384,0.657,0.618,-,CALM,�L
2020/07/06,18:00,0.643,0.908,0.587,1.107,0.788,0.384,0.658,0.619,���k��,0.6,�L
2020/07/06,18:10,0.644,0.908,0.589,1.108,0.789,0.384,0.657,0.619,-,CALM,�L
2020/07/06,18:20,0.641,0.907,0.588,1.105,0.790,0.385,0.656,0.619,��쓌,1.2,�L
2020/07/06,18:30,0.644,0.906,0.590,1.104,0.787,0.385,0.658,0.620,��,2.0,�L
2020/07/06,18:40,0.643,0.907,0.587,1.104,0.788,0.385,0.658,0.620,��,3.0,�L
2020/07/06,18:50,0.644,0.904,0.587,1.105,0.789,0.384,0.656,0.619,��쓌,2.6,�L
2020/07/06,19:00,0.643,0.905,0.588,1.106,0.786,0.383,0.656,0.619,��쓌,4.8,�L
2020/07/06,19:10,0.643,0.906,0.589,1.105,0.788,0.383,0.656,0.618,��쓌,9.0,�L
2020/07/06,19:20,0.644,0.906,0.589,1.103,0.789,0.383,0.658,0.620,��,8.8,�L
2020/07/06,19:30,0.643,0.905,0.586,1.105,0.787,0.383,0.658,0.620,��,8.5,�L
2020/07/06,19:40,0.646,0.903,0.588,1.105,0.789,0.384,0.657,0.620,��,10.5,�L
2020/07/06,19:50,0.645,0.909,0.589,1.106,0.789,0.384,0.657,0.620,��,11.3,�L
2020/07/06,20:00,0.646,0.906,0.588,1.105,0.789,0.385,0.659,0.619,��,9.8,�L
2020/07/06,20:10,0.647,0.907,0.589,1.108,0.790,0.384,0.658,0.620,��,10.6,�L
2020/07/06,20:20,0.645,0.910,0.589,1.107,0.788,0.385,0.659,0.620,��,10.0,�L
2020/07/06,20:30,0.647,0.909,0.590,1.107,0.792,0.386,0.659,0.619,��,10.2,�L
2020/07/06,20:40,0.648,0.909,0.591,1.107,0.792,0.386,0.660,0.620,��,9.7,�L
2020/07/06,20:50,0.647,0.910,0.591,1.107,0.793,0.388,0.659,0.620,��,10.2,�L
2020/07/06,21:00,0.647,0.909,0.591,1.108,0.791,0.388,0.660,0.620,��,8.9,�L
2020/07/06,21:10,0.648,0.910,0.592,1.108,0.793,0.388,0.661,0.622,��,7.4,�L
2020/07/06,21:20,0.651,0.913,0.591,1.107,0.793,0.388,0.661,0.621,��,6.7,�L
2020/07/06,21:30,0.649,0.911,0.592,1.108,0.793,0.388,0.660,0.620,��,7.2,�L
2020/07/06,21:40,0.649,0.910,0.592,1.110,0.793,0.388,0.660,0.621,��,7.6,�L
2020/07/06,21:50,0.649,0.911,0.593,1.111,0.793,0.389,0.660,0.622,��,7.4,�L
2020/07/06,22:00,0.649,0.913,0.590,1.109,0.793,0.389,0.659,0.621,��,7.4,�L
2020/07/06,22:10,0.650,0.912,0.594,1.111,0.791,0.389,0.659,0.621,��,6.8,�L
2020/07/06,22:20,0.648,0.911,0.594,1.111,0.793,0.389,0.660,0.623,��,7.7,�L
2020/07/06,22:30,0.650,0.914,0.592,1.111,0.792,0.390,0.658,0.622,��,9.2,�L
2020/07/06,22:40,0.649,0.913,0.594,1.112,0.794,0.389,0.660,0.621,��,8.2,�L
2020/07/06,22:50,0.650,0.912,0.593,1.114,0.795,0.389,0.661,0.622,��,7.4,�L
2020/07/06,23:00,0.650,0.915,0.594,1.110,0.795,0.390,0.660,0.622,��,7.1,�L
2020/07/06,23:10,0.652,0.912,0.594,1.112,0.794,0.390,0.659,0.621,��,6.5,�L
2020/07/06,23:20,0.651,0.915,0.594,1.113,0.797,0.391,0.660,0.622,��쐼,7.1,�L
2020/07/06,23:30,0.651,0.914,0.593,1.113,0.797,0.388,0.661,0.622,��,5.8,��
2020/07/06,23:40,0.651,0.915,0.594,1.114,0.796,0.390,0.660,0.620,��,4.5,��
2020/07/06,23:50,0.651,0.915,0.593,1.115,0.797,0.389,0.661,0.623,��,5.8,�L
